sat.trackr.live / text

‹ back to catalog

STARLINK-31342

NORAD 59166 · 2024-044Q

PAYLOAD ACTIVE UNKNOWN

§ Identity

Operator
Country
US
Launch date
2024-03-04
Launch site
AFETR
Launch vehicle
Mass (kg)
RCS (m²)

Purposes: comms

External: N2YO · Heavens-Above · Gunter

§ Orbital elements

Epoch: 2026-09-20T21:58:43.652928Z

Period
94.27 min
Inclination
43.0017°
Eccentricity
0.0001410
Mean motion
15.27574545 rev/d
Perigee alt
482.1 km
Apogee alt
484.0 km
Semi-major
6,861.2 km
B*
3.6487e-6
RAAN
84.4239°
Arg perigee
265.7796°
Mean anomaly
94.2895°
Rev number
14,345

§ Raw data

STARLINK-313421 59166U 24044Q   26263.91578302 -.00000162  00000+0  36487-5 0  99972 59166  43.0017  84.4239 0001410 265.7796  94.2895 15.27574545143451

JSON: /api/v1/satellites/59166 · /tle

For live sub-satellite position, see the globe view (requires WebGL).

§ Visibility from observer

Set your observer location to see the next 7 days of passes ≥ 10°. The values pass through the URL so the page stays shareable.

No JS? Fill the form by hand. The geolocation button needs JavaScript.